W0KHZ Weather Reports


time (UTC)temp
F
wind
direction
speed
knots
gust
knots
rain 1hr
in
rain 24hr
in
rain mn
in
humidity
%
barometer
mb
20260508004527 54 296 0.9 2.6 0.00 0.00 0.00 31 1008.1
20260508004025 55 310 0.0 0.9 0.00 0.00 0.00 31 1008.1
20260508003523 55 311 0.9 2.6 0.00 0.00 0.00 31 1008.0
20260508003021 55 306 0.9 2.6 0.00 0.00 0.00 30 1008.0
20260508002518 55 297 1.7 3.5 0.00 0.00 0.00 30 1008.0
20260508002056 56 299 2.6 8.7 0.00 0.00 0.00 30 1007.9
20260508001534 56 294 2.6 7.0 0.00 0.00 0.00 30 1007.9
20260508001032 56 306 1.7 5.2 0.00 0.00 0.00 30 1007.8
20260508000530 56 294 1.7 5.2 0.00 0.00 0.00 29 1007.8
20260508000028 56 291 2.6 6.1 0.00 0.00 0.00 30 1007.8
20260507235527 57 311 2.6 7.8 0.00 0.00 0.00 29 1007.8
20260507235045 57 318 1.7 7.8 0.00 0.00 0.00 30 1007.9
20260507234523 57 304 0.9 2.6 0.00 0.00 0.00 29 1007.9
20260507234021 57 302 0.9 5.2 0.00 0.00 0.00 29 1007.8
20260507233519 57 297 1.7 6.1 0.00 0.00 0.00 29 1007.7
20260507233017 57 307 1.7 5.2 0.00 0.00 0.00 29 1007.7
20260507232535 58 291 2.6 8.7 0.00 0.00 0.00 29 1007.9
20260507232033 58 303 2.6 7.0 0.00 0.00 0.00 29 1007.7
20260507231531 58 317 1.7 3.5 0.00 0.00 0.00 29 1007.9
20260507231029 58 311 2.6 13.0 0.00 0.00 0.00 28 1007.8
20260507230527 58 331 2.6 6.1 0.00 0.00 0.00 29 1007.8
20260507230026 58 295 2.6 8.7 0.00 0.00 0.00 30 1007.9
20260507225524 58 306 2.6 6.1 0.00 0.00 0.00 29 1007.8
20260507225022 58 294 2.6 9.6 0.00 0.00 0.00 29 1007.9
20260507224521 58 317 1.7 5.2 0.00 0.00 0.00 29 1007.9
20260507224018 58 298 2.6 7.8 0.00 0.00 0.00 29 1007.9
20260507223536 58 287 3.5 8.7 0.00 0.00 0.00 29 1007.9
20260507223034 59 305 2.6 7.0 0.00 0.00 0.00 28 1007.9
20260507222532 59 321 1.7 3.5 0.00 0.00 0.00 29 1007.8
20260507222031 59 271 1.7 7.0 0.00 0.00 0.00 30 1007.9
20260507221529 59 249 1.7 6.1 0.00 0.00 0.00 30 1007.9
20260507221027 59 270 1.7 5.2 0.00 0.00 0.00 31 1007.9
20260507220545 59 289 1.7 8.7 0.00 0.00 0.00 29 1008.0
20260507220023 59 327 3.5 9.6 0.00 0.00 0.00 28 1008.1
20260507215522 60 316 3.5 13.9 0.00 0.00 0.00 27 1007.8
20260507215020 60 312 2.6 9.6 0.00 0.00 0.00 30 1007.8
20260507214518 60 243 2.6 6.1 0.00 0.00 0.00 30 1007.9
20260507214035 60 321 1.7 9.6 0.00 0.00 0.00 29 1007.8
20260507213553 60 303 2.6 9.6 0.00 0.00 0.00 29 1007.8
20260507213031 60 300 2.6 7.8 0.00 0.00 0.00 30 1007.8
20260507212529 60 306 2.6 9.6 0.00 0.00 0.00 30 1007.9
20260507212027 60 310 2.6 7.8 0.00 0.00 0.00 30 1007.9
20260507211525 60 301 4.3 9.6 0.00 0.00 0.00 30 1007.9
20260507211023 60 298 4.3 13.0 0.00 0.00 0.00 30 1008.0
20260507210521 60 298 2.6 7.0 0.00 0.00 0.00 29 1007.8
20260507210019 60 325 1.7 5.2 0.00 0.00 0.00 31 1007.9
20260507205516 60 310 2.6 9.6 0.00 0.00 0.00 30 1008.1
20260507205034 60 316 3.5 7.8 0.00 0.00 0.00 30 1008.0
20260507204533 60 302 2.6 6.1 0.00 0.00 0.00 32 1008.2
20260507204030 60 272 1.7 6.1 0.00 0.00 0.00 31 1008.2
20260507203528 60 299 2.6 13.0 0.00 0.00 0.00 31 1008.3
20260507203046 60 319 1.7 3.5 0.00 0.00 0.00 32 1008.3
20260507202524 60 323 3.5 7.8 0.00 0.00 0.00 32 1008.3
20260507202042 59 302 2.6 6.1 0.00 0.00 0.00 33 1008.2
20260507201520 59 312 2.6 8.7 0.00 0.00 0.00 32 1008.4
20260507201037 59 291 1.7 6.1 0.00 0.00 0.00 32 1008.4
20260507200535 59 300 3.5 9.6 0.00 0.00 0.00 31 1008.5
20260507200053 59 335 2.6 11.3 0.00 0.00 0.00 33 1008.4
20260507195531 59 275 1.7 5.2 0.00 0.00 0.00 33 1008.5
20260507195029 59 296 2.6 5.2 0.00 0.00 0.00 33 1008.4
20260507194527 60 313 4.3 14.8 0.00 0.00 0.00 32 1008.6
20260507194025 59 316 1.7 11.3 0.00 0.00 0.00 34 1008.5
20260507193523 59 295 2.6 7.8 0.00 0.00 0.00 35 1008.6
20260507193022 59 313 3.5 11.3 0.00 0.00 0.00 36 1008.7
20260507192519 59 290 2.6 7.8 0.00 0.00 0.00 34 1008.7
20260507192036 59 293 2.6 7.0 0.00 0.00 0.00 35 1008.7
20260507191534 59 295 2.6 6.1 0.00 0.00 0.00 36 1008.9
20260507191033 59 318 3.5 7.8 0.00 0.00 0.00 34 1008.7
20260507190531 59 310 2.6 8.7 0.00 0.00 0.00 35 1008.8
20260507190029 58 239 2.6 8.7 0.00 0.00 0.00 35 1008.7
20260507185548 58 313 1.7 7.0 0.00 0.00 0.00 34 1008.8
20260507185026 58 324 4.3 13.9 0.00 0.00 0.00 34 1008.7
20260507184544 58 298 3.5 7.0 0.00 0.00 0.00 35 1008.6
20260507184042 58 307 2.6 7.8 0.00 0.00 0.00 35 1008.8
20260507183520 57 281 3.5 13.0 0.00 0.00 0.00 40 1008.8
20260507183018 57 286 1.7 7.8 0.00 0.00 0.00 40 1008.7
20260507182516 56 288 3.5 9.6 0.00 0.00 0.00 39 1008.8
20260507182034 56 301 1.7 11.3 0.00 0.00 0.00 43 1008.7
20260507181532 56 276 0.9 2.6 0.00 0.00 0.00 43 1008.8
20260507181031 56 293 1.7 2.6 0.00 0.00 0.00 42 1008.9
20260507180529 57 304 2.6 8.7 0.00 0.00 0.00 40 1009.1
20260507180027 58 324 2.6 7.0 0.00 0.00 0.00 42 1009.0
20260507175525 58 288 2.6 7.8 0.00 0.00 0.00 42 1009.1
20260507175043 57 230 1.7 6.1 0.00 0.00 0.00 45 1009.2
20260507174521 57 231 0.9 5.2 0.00 0.00 0.00 47 1009.2
20260507174020 56 250 2.6 7.8 0.00 0.00 0.00 45 1009.2
20260507173517 56 310 1.7 7.0 0.00 0.00 0.00 45 1009.2
20260507173035 55 289 1.7 6.1 0.00 0.00 0.00 46 1009.3
20260507172533 55 257 2.6 5.2 0.00 0.00 0.00 47 1009.4
20260507172031 55 275 1.7 7.8 0.00 0.00 0.00 47 1009.4
20260507171529 56 250 2.6 7.0 0.00 0.00 0.00 44 1009.6
20260507171028 56 296 2.6 7.8 0.00 0.00 0.00 46 1009.6
20260507170526 55 288 2.6 9.6 0.00 0.00 0.00 48 1009.6
20260507170025 55 283 0.9 3.5 0.00 0.00 0.00 48 1009.9
20260507165522 55 294 2.6 7.0 0.00 0.00 0.00 48 1009.8
20260507165021 55 318 1.7 5.2 0.00 0.00 0.00 48 1009.8
20260507164519 55 321 2.6 5.2 0.00 0.00 0.00 47 1009.7
20260507164036 54 254 0.9 3.5 0.00 0.00 0.00 49 1009.8
20260507163534 54 250 1.7 6.1 0.00 0.00 0.00 49 1009.9
20260507163032 54 278 1.7 7.0 0.00 0.00 0.00 50 1009.9
20260507162550 54 42 1.7 5.2 0.00 0.00 0.00 49 1009.9
20260507162028 54 316 0.9 2.6 0.00 0.00 0.00 50 1010.0
20260507161606 54 289 2.6 7.8 0.00 0.00 0.00 52 1010.1
20260507161024 53 263 0.9 1.7 0.00 0.00 0.00 55 1010.1
20260507160522 53 227 0.9 5.2 0.00 0.00 0.00 55 1010.1
20260507160020 53 225 1.7 6.1 0.00 0.00 0.00 54 1010.1
20260507155518 52 267 1.7 3.5 0.00 0.00 0.00 55 1010.1
20260507155016 52 262 1.7 3.5 0.00 0.00 0.00 55 1010.2
20260507154534 51 257 0.9 2.6 0.00 0.00 0.00 53 1010.2
20260507154032 51 280 1.7 6.1 0.00 0.00 0.00 55 1010.4
20260507153530 51 289 1.7 5.2 0.00 0.00 0.00 57 1010.4
20260507153028 50 298 1.7 3.5 0.00 0.00 0.00 57 1010.5
20260507152527 50 250 0.9 2.6 0.00 0.00 0.00 58 1010.5
20260507152025 50 270 1.7 2.6 0.00 0.00 0.00 58 1010.6
20260507151523 49 296 1.7 5.2 0.00 0.00 0.00 59 1010.7
20260507151021 49 285 1.7 5.2 0.00 0.00 0.00 62 1010.8
20260507150520 48 287 0.9 2.6 0.00 0.00 0.00 64 1010.8
20260507150017 47 282 0.9 2.6 0.00 0.00 0.00 66 1011.0
20260507145535 46 278 1.7 5.2 0.00 0.00 0.00 67 1011.0
20260507145033 45 271 0.0 1.7 0.00 0.00 0.00 71 1011.1
20260507144551 44 271 0.9 2.6 0.00 0.00 0.00 73 1011.1
20260507144029 44 0.0 0.0 0.00 0.00 0.00 74 1011.3
20260507143548 43 0.0 0.0 0.00 0.00 0.00 74 1011.3
20260507143026 42 0.0 0.0 0.00 0.00 0.00 74 1011.5
20260507142524 42 0.0 0.0 0.00 0.00 0.00 76 1011.5
20260507142023 41 0.0 0.0 0.00 0.00 0.00 77 1011.6
20260507141541 40 0.0 0.0 0.00 0.00 0.00 78 1011.8
20260507141019 39 0.0 0.0 0.00 0.00 0.00 79 1011.9
20260507140516 39 0.0 0.0 0.00 0.00 0.00 79 1011.8
20260507140034 39 0.0 0.0 0.00 0.00 0.00 80 1011.9
20260507135532 38 0.0 0.0 0.00 0.00 0.00 80 1012.0
20260507135030 38 0.0 0.0 0.00 0.00 0.00 80 1011.8
20260507134529 38 0.0 0.0 0.00 0.00 0.00 81 1011.8
20260507134027 38 0.0 0.0 0.00 0.00 0.00 81 1011.9
20260507133525 38 0.0 0.0 0.00 0.00 0.00 82 1011.6
20260507133023 37 0.0 0.0 0.00 0.00 0.00 83 1011.7
20260507132521 37 0.0 0.0 0.00 0.00 0.00 83 1011.7
20260507132020 36 0.0 0.0 0.00 0.00 0.00 84 1011.7
20260507131537 35 0.0 0.0 0.00 0.00 0.00 84 1011.7
20260507131035 35 0.0 0.0 0.00 0.00 0.00 84 1011.6
20260507130533 34 0.0 0.0 0.00 0.00 0.00 84 1011.8
20260507130052 34 0.0 0.0 0.00 0.00 0.00 85 1011.9
20260507125530 33 0.0 0.0 0.00 0.00 0.00 85 1011.9
20260507125028 33 0.0 0.0 0.00 0.00 0.00 85 1011.9
20260507124527 33 0.0 0.0 0.00 0.00 0.00 85 1011.8
20260507124025 32 0.0 0.0 0.00 0.00 0.00 85 1011.9
20260507123523 32 0.0 0.0 0.00 0.00 0.00 86 1011.8
20260507123041 31 0.0 0.0 0.00 0.00 0.00 86 1011.8
20260507122519 31 0.0 0.0 0.00 0.00 0.00 85 1011.9
20260507122016 31 0.0 0.0 0.00 0.00 0.00 85 1011.8
20260507121614 30 0.0 0.0 0.00 0.00 0.00 86 1011.9
20260507121032 30 0.0 0.0 0.00 0.00 0.00 86 1011.9
20260507120530 30 0.0 0.0 0.00 0.00 0.00 86 1012.0
20260507120029 30 0.0 0.0 0.00 0.00 0.00 86 1011.8
20260507115527 29 0.0 0.0 0.00 0.00 0.00 86 1011.9
20260507115045 29 0.0 0.0 0.00 0.00 0.00 86 1011.8
20260507114543 29 0.0 0.0 0.00 0.00 0.00 86 1012.0
20260507114022 29 0.0 0.0 0.00 0.00 0.00 86 1011.8
20260507113520 29 0.0 0.0 0.00 0.00 0.00 86 1011.8
20260507113037 29 0.0 0.0 0.00 0.00 0.00 85 1011.8
20260507112515 28 0.0 0.0 0.00 0.00 0.00 85 1011.7
20260507112034 28 0.0 0.0 0.00 0.00 0.00 85 1011.7
20260507111532 28 0.0 0.0 0.00 0.00 0.00 85 1011.7
20260507111030 28 0.0 0.0 0.00 0.00 0.00 85 1011.8
20260507110528 28 0.0 0.0 0.00 0.00 0.00 85 1011.6
20260507110047 28 0.0 0.0 0.00 0.00 0.00 85 1011.8
20260507105525 28 0.0 0.0 0.00 0.00 0.00 85 1011.8
20260507105023 28 0.0 0.0 0.00 0.00 0.00 85 1011.8
20260507104521 29 0.0 0.0 0.00 0.00 0.00 85 1011.8
20260507104019 29 0.0 0.0 0.00 0.00 0.00 85 1011.7
20260507103517 29 0.0 0.0 0.00 0.00 0.00 85 1011.7
20260507103034 28 0.0 0.0 0.00 0.00 0.00 85 1011.7
20260507102533 29 0.0 0.0 0.00 0.00 0.00 85 1011.9
20260507102031 29 0.0 0.0 0.00 0.00 0.00 85 1011.9
20260507101529 29 0.0 0.0 0.00 0.00 0.00 85 1012.0
20260507101027 29 0.0 0.0 0.00 0.00 0.00 85 1011.9
20260507100525 29 0.0 0.0 0.00 0.00 0.00 85 1011.9
20260507100023 29 0.0 0.0 0.00 0.00 0.00 85 1011.9
20260507095522 29 0.0 0.0 0.00 0.00 0.00 85 1011.9
20260507095020 29 0.0 0.0 0.00 0.00 0.00 85 1011.9
20260507094518 29 0.0 0.0 0.00 0.00 0.00 85 1012.0
20260507094015 29 0.0 0.0 0.00 0.00 0.00 85 1012.1
20260507093534 29 0.0 0.0 0.00 0.00 0.00 84 1012.1
20260507093032 29 0.0 0.0 0.00 0.00 0.00 84 1012.2
20260507092550 29 0.0 0.0 0.00 0.00 0.00 84 1012.1
20260507092029 29 0.0 0.0 0.00 0.00 0.00 84 1012.2
20260507091526 30 0.0 0.0 0.00 0.00 0.00 84 1012.2
20260507091025 30 0.0 0.0 0.00 0.00 0.00 84 1012.2
20260507090523 30 0.0 0.0 0.00 0.00 0.00 84 1012.2
20260507090021 30 0.0 0.0 0.00 0.00 0.00 83 1012.3
20260507085520 30 0.0 0.0 0.00 0.00 0.00 83 1012.3
20260507085058 30 0.0 0.0 0.00 0.00 0.00 83 1012.5
20260507084535 30 0.0 0.0 0.00 0.00 0.00 83 1012.5
20260507084034 30 0.0 0.0 0.00 0.00 0.00 83 1012.6
20260507083552 30 0.0 0.0 0.00 0.00 0.00 83 1012.6
20260507083030 30 0.0 0.0 0.00 0.00 0.00 83 1012.8
20260507082528 30 0.0 0.0 0.00 0.00 0.00 83 1012.7
20260507082026 30 0.0 0.0 0.00 0.00 0.00 83 1012.5
20260507081525 30 0.0 0.0 0.00 0.00 0.00 83 1012.7
20260507081023 30 0.0 0.0 0.00 0.00 0.00 83 1012.6
20260507080521 30 0.0 0.0 0.00 0.00 0.00 83 1012.7
20260507080019 30 0.0 0.0 0.00 0.00 0.00 82 1012.7
20260507075516 30 0.0 0.0 0.00 0.00 0.00 82 1012.8
20260507075054 30 0.0 0.0 0.00 0.00 0.00 82 1012.7
20260507074533 30 0.0 0.0 0.00 0.00 0.00 82 1012.8
20260507074031 30 0.0 0.0 0.00 0.00 0.00 82 1012.7
20260507073529 30 0.0 0.0 0.00 0.00 0.00 82 1012.7
20260507073027 30 0.0 0.0 0.00 0.00 0.00 82 1012.9
20260507072526 30 0.0 0.0 0.00 0.00 0.00 82 1012.9
20260507072024 30 0.0 0.0 0.00 0.00 0.00 82 1012.8
20260507071522 30 0.0 0.0 0.00 0.00 0.00 82 1012.8
20260507071020 30 0.0 0.0 0.00 0.00 0.00 82 1012.8
20260507070518 30 0.0 0.0 0.00 0.00 0.00 82 1012.9
20260507070016 30 0.0 0.0 0.00 0.00 0.00 82 1012.9
20260507065534 30 0.0 0.0 0.00 0.00 0.00 82 1012.9
20260507065032 30 0.0 0.0 0.00 0.00 0.00 81 1012.8
20260507064530 30 0.0 0.0 0.00 0.00 0.00 81 1012.7
20260507064028 29 0.0 0.0 0.00 0.00 0.00 81 1012.9
20260507063546 29 0.0 0.0 0.00 0.00 0.00 82 1013.1
20260507063025 29 0.0 0.0 0.00 0.00 0.00 82 1013.0
20260507062523 29 0.0 0.0 0.00 0.00 0.00 81 1013.0
20260507062021 29 0.0 0.0 0.00 0.00 0.00 81 1013.1
20260507061539 29 0.0 0.0 0.00 0.00 0.00 81 1013.1
20260507061017 29 0.0 0.0 0.00 0.00 0.00 81 1013.1
20260507060535 29 0.0 0.0 0.00 0.00 0.00 81 1013.2
20260507060033 29 0.0 0.0 0.00 0.00 0.00 82 1013.3
20260507055531 29 0.0 0.0 0.00 0.00 0.00 81 1013.4
20260507055030 29 0.0 0.0 0.00 0.00 0.00 80 1013.3
20260507054528 29 0.0 0.0 0.00 0.00 0.00 79 1013.4
20260507054026 30 0.0 0.0 0.00 0.00 0.00 79 1013.4
20260507053544 30 0.0 0.0 0.00 0.00 0.00 80 1013.3
20260507053023 30 0.0 0.0 0.00 0.00 0.00 80 1013.4
20260507052521 30 0.0 0.0 0.00 0.00 0.00 80 1013.4
20260507052019 30 0.0 0.0 0.00 0.00 0.00 80 1013.4
20260507051536 30 0.0 0.0 0.00 0.00 0.00 80 1013.4
20260507051034 30 0.0 0.0 0.00 0.00 0.00 80 1013.5
20260507050533 30 0.0 0.0 0.00 0.00 0.00 80 1013.5
20260507050031 30 0.0 0.0 0.00 0.00 0.00 79 1013.5
20260507045529 31 0.0 0.0 0.00 0.00 0.00 78 1013.4
20260507045027 31 0.0 0.0 0.00 0.00 0.00 77 1013.6
20260507044526 31 0.0 0.0 0.00 0.00 0.00 77 1013.6
20260507044024 31 0.0 0.0 0.00 0.00 0.00 78 1013.6
20260507043522 31 0.0 0.0 0.00 0.00 0.00 77 1013.5
20260507043020 31 0.0 0.0 0.00 0.00 0.00 78 1013.5
20260507042518 31 0.0 0.0 0.00 0.00 0.00 77 1013.5
20260507042016 32 0.0 0.0 0.00 0.00 0.00 77 1013.6
20260507041534 32 0.0 0.0 0.00 0.00 0.00 76 1013.7
20260507041032 32 0.0 0.0 0.00 0.00 0.00 76 1013.8
20260507040530 32 0.0 0.0 0.00 0.00 0.00 75 1013.7
20260507040029 33 0.0 0.0 0.00 0.00 0.00 74 1013.9
20260507035526 33 0.0 0.0 0.00 0.00 0.00 73 1013.9
20260507035025 33 0.0 0.0 0.00 0.00 0.00 73 1013.8
20260507034543 33 0.0 0.0 0.00 0.00 0.00 73 1013.9
20260507034041 33 0.0 0.0 0.00 0.00 0.00 74 1014.0
20260507033519 33 0.0 0.0 0.00 0.00 0.00 74 1014.0
20260507033016 33 0.0 0.0 0.00 0.00 0.00 71 1014.0
20260507032534 33 0.0 0.0 0.00 0.00 0.00 72 1013.9
20260507032032 33 0.0 0.0 0.00 0.00 0.00 72 1014.1
20260507031531 34 0.0 0.0 0.00 0.00 0.00 72 1014.2
20260507031029 34 0.0 0.0 0.00 0.00 0.00 72 1014.2
20260507030527 34 0.0 0.0 0.00 0.00 0.00 72 1014.1
20260507030025 34 0.0 0.0 0.00 0.00 0.00 70 1014.2
20260507025523 34 0.0 0.0 0.00 0.00 0.00 71 1014.1
20260507025021 34 0.0 0.0 0.00 0.00 0.00 70 1014.1
20260507024519 34 0.0 0.0 0.00 0.00 0.00 70 1014.2
20260507024016 35 0.0 0.0 0.00 0.00 0.00 70 1014.2
20260507023554 35 0.0 0.0 0.00 0.00 0.00 70 1014.0
20260507023032 35 0.0 0.0 0.00 0.00 0.00 69 1014.0
20260507022530 35 0.0 0.0 0.00 0.00 0.00 68 1014.0
20260507022028 36 0.0 0.0 0.00 0.00 0.00 68 1014.0
20260507021546 36 0.0 0.0 0.00 0.00 0.00 67 1014.1
20260507021024 37 0.0 0.0 0.00 0.00 0.00 65 1014.0
20260507020522 37 0.0 0.0 0.00 0.00 0.00 66 1013.9
20260507020020 37 0.0 0.0 0.00 0.00 0.00 64 1014.0
20260507015517 38 0.0 0.0 0.00 0.00 0.00 62 1013.8
20260507015035 38 0.0 0.0 0.00 0.00 0.00 60 1013.8
20260507014533 39 0.0 0.0 0.00 0.00 0.00 59 1013.8
20260507014031 39 0.0 0.0 0.00 0.00 0.00 58 1013.8
20260507013529 40 0.0 0.0 0.00 0.00 0.00 58 1013.7
20260507013026 40 0.0 0.0 0.00 0.00 0.00 56 1013.7
20260507012525 41 0.0 0.0 0.00 0.00 0.00 55 1013.7
20260507012022 41 0.0 0.0 0.00 0.00 0.00 55 1013.6
20260507011521 42 0.0 0.0 0.00 0.00 0.00 53 1013.6
20260507011039 42 0.0 0.0 0.00 0.00 0.00 52 1013.6
20260507010515 42 0.0 0.0 0.00 0.00 0.00 51 1013.6
20260507010053 43 0.0 0.0 0.00 0.00 0.00 51 1013.6
20260507005532 43 0.0 0.0 0.00 0.00 0.00 50 1013.7
20260507005029 43 0.0 0.0 0.00 0.00 0.00 50 1013.7